Clermont County, Batavia, OH

2:12 AM EDT on September 22, 2019 (GMT -0400)
Clermont County, Batavia

Weather History for KI69 - August, 2019

Change the Weather History Date:

Sunday, August 18, 2019

  Actual Average (KLUK) Record (KLUK)
Temperature  
Mean Temperature 80 °F -  
Max Temperature 91 °F 86 °F 98 °F (1988)
Min Temperature 70 °F 65 °F 53 °F (1962)
Cooling Degree Days 16    
Growing Degree Days 30 (Base 50)    
Moisture  
Dew Point 70 °F    
Average Humidity 70    
Maximum Humidity 97    
Minimum Humidity 47    
Precipitation  
Precipitation 0.00 in - - ()
Sea Level Pressure  
Sea Level Pressure 29.98 in    
Wind  
Wind Speed 4 mph (SW)    
Max Wind Speed 12 mph    
Max Gust Speed 17 mph    
Visibility 10 miles    
Events      
Averages and records for this station are not official NWS values.
T = Trace of Precipitation, MM = Missing Value Source: NWS Daily Summary

Daily Weather History Graph

Daily Weather History Graph

Search for Another Location

Airport or City:

Astronomy

Aug. 18, 2019 Rise Set
Actual Time 6:52 AM EDT 8:28 PM EDT
Civil Twilight 6:24 AM EDT 8:56 PM EDT
Nautical Twilight 5:50 AM EDT 9:30 PM EDT
Astronomical Twilight 5:13 AM EDT 10:06 PM EDT
Moon 10:23 PM EDT (8/18) 9:35 AM EDT (8/18)
Length of Visible Light 14h 32m
Length of Day
13h 35m
Waning Gibbous, 91% of the Moon is Illuminated
Aug 18
Waning Gibbous
Aug 23
Last Quarter
Aug 30
New
Sep 5
First Quarter
Sep 14
Full

Hourly Weather History & Observations

Time (EDT) Temp. Heat Index Dew Point Humidity Pressure Visibility Wind Dir Wind Speed Gust Speed Precip Events Conditions
12:19 AM 76.6 °F - 70.0 °F 80% 29.99 in 10.0 mi South 3.5 mph - N/A   Clear
12:37 AM 77.0 °F - 70.2 °F 79% 30.00 in 10.0 mi South 4.6 mph - N/A   Clear
12:55 AM 76.5 °F - 70.2 °F 81% 29.99 in 10.0 mi SSW 3.5 mph - N/A   Clear
1:15 AM 76.1 °F - 70.2 °F 82% 29.99 in 10.0 mi South 4.6 mph - N/A   Clear
1:35 AM 75.7 °F - 70.2 °F 83% 29.98 in 10.0 mi Calm Calm - N/A   Clear
1:59 AM 75.4 °F - 70.2 °F 84% 29.98 in 10.0 mi SSW 3.5 mph - N/A   Clear
2:17 AM 75.4 °F - 70.2 °F 84% 29.97 in 10.0 mi Calm Calm - N/A   Clear
2:35 AM 75.2 °F - 70.0 °F 84% 29.97 in 10.0 mi SW 3.5 mph - N/A   Clear
2:55 AM 75.0 °F - 70.0 °F 84% 29.97 in 10.0 mi Calm Calm - N/A   Clear
3:16 AM 75.2 °F - 70.0 °F 84% 29.97 in 10.0 mi Calm Calm - N/A   Clear
3:39 AM 72.9 °F - 69.8 °F 90% 29.98 in 10.0 mi Calm Calm - N/A   Clear
3:57 AM 72.1 °F - 70.0 °F 93% 29.98 in 10.0 mi Calm Calm - N/A   Clear
4:15 AM 72.3 °F - 69.8 °F 92% 29.98 in 10.0 mi South 3.5 mph - N/A   Clear
4:35 AM 72.9 °F - 69.8 °F 90% 29.97 in 10.0 mi Calm Calm - N/A   Clear
4:55 AM 72.3 °F - 69.8 °F 92% 29.97 in 10.0 mi Calm Calm - N/A   Clear
5:19 AM 72.0 °F - 69.8 °F 93% 29.96 in 10.0 mi Calm Calm - N/A   Clear
5:37 AM 71.2 °F - 69.8 °F 95% 29.97 in 10.0 mi Calm Calm - N/A   Clear
5:55 AM 72.3 °F - 69.8 °F 92% 29.97 in 10.0 mi Calm Calm - N/A   Clear
6:15 AM 71.6 °F - 69.6 °F 93% 29.97 in 10.0 mi Calm Calm - N/A   Clear
6:35 AM 70.9 °F - 69.4 °F 95% 29.96 in 10.0 mi Calm Calm - N/A   Clear
6:58 AM 70.9 °F - 69.4 °F 95% 29.98 in 10.0 mi Calm Calm - N/A   Clear
7:17 AM 70.3 °F - 69.3 °F 96% 29.98 in 10.0 mi Calm Calm - N/A   Clear
7:35 AM 70.0 °F - 69.1 °F 97% 29.98 in 10.0 mi Calm Calm - N/A   Clear
7:55 AM 71.8 °F - 69.8 °F 93% 29.99 in 10.0 mi Calm Calm - N/A   Clear
8:15 AM 74.3 °F - 70.5 °F 88% 30.00 in 10.0 mi SSW 3.5 mph - N/A   Clear
8:38 AM 76.1 °F - 71.1 °F 84% 30.00 in 10.0 mi SSW 3.5 mph - N/A   Clear
8:56 AM 77.5 °F - 71.2 °F 81% 30.00 in 10.0 mi Calm Calm - N/A   Clear
9:16 AM 79.0 °F - 71.1 °F 77% 30.01 in 10.0 mi SW 6.9 mph - N/A   Clear
9:35 AM 79.5 °F - 71.6 °F 77% 30.01 in 10.0 mi WSW 5.8 mph - N/A   Clear
9:55 AM 80.6 °F 84.6 °F 71.8 °F 74% 30.01 in 10.0 mi SW 6.9 mph - N/A   Clear
10:18 AM 81.3 °F 85.8 °F 71.8 °F 73% 30.02 in 10.0 mi SW 4.6 mph - N/A   Clear
10:36 AM 82.6 °F 87.6 °F 72.0 °F 70% 30.02 in 10.0 mi SSW 3.5 mph - N/A   Clear
10:55 AM 83.7 °F 89.4 °F 72.5 °F 69% 30.02 in 10.0 mi South 4.6 mph - N/A   Clear
11:15 AM 84.6 °F 91.4 °F 73.4 °F 69% 30.02 in 10.0 mi SSW 4.6 mph - N/A   Clear
11:35 AM 85.5 °F 91.8 °F 72.3 °F 65% 30.02 in 10.0 mi SW 4.6 mph - N/A   Clear
11:58 AM 86.7 °F 92.9 °F 72.0 °F 61% 30.02 in 10.0 mi SW 6.9 mph - N/A   Clear
12:16 PM 87.4 °F 94.0 °F 71.8 °F 60% 30.01 in 10.0 mi West 4.6 mph - N/A   Clear
12:35 PM 88.3 °F 94.5 °F 71.6 °F 57% 30.01 in 10.0 mi WSW 11.5 mph - N/A   Clear
12:56 PM 88.3 °F 94.5 °F 71.6 °F 57% 30.01 in 10.0 mi WSW 10.4 mph 16.1 mph N/A   Scattered Clouds
1:15 PM 88.2 °F 94.1 °F 71.1 °F 57% 30.01 in 10.0 mi WSW 10.4 mph - N/A   Scattered Clouds
1:38 PM 89.1 °F 95.0 °F 70.9 °F 55% 30.01 in 10.0 mi SW 9.2 mph 17.3 mph N/A   Mostly Cloudy
1:56 PM 90.1 °F 95.8 °F 70.2 °F 52% 30.01 in 10.0 mi SSW 9.2 mph - N/A   Scattered Clouds
2:15 PM 90.1 °F 94.9 °F 69.1 °F 50% 30.01 in 10.0 mi WSW 10.4 mph - N/A   Scattered Clouds
2:35 PM 88.0 °F 92.9 °F 70.0 °F 55% 30.01 in 10.0 mi SW 8.1 mph - N/A   Mostly Cloudy
2:55 PM 89.1 °F 95.0 °F 71.2 °F 55% 30.00 in 10.0 mi SW 6.9 mph - N/A   Mostly Cloudy
3:00 PM 89.8 °F 97.0 °F 72.3 °F 56% 30.00 in 10.0 mi WSW 9.2 mph - N/A   Mostly Cloudy
3:18 PM 89.6 °F 96.2 °F 71.2 °F 55% 30.00 in 10.0 mi SW 9.2 mph - N/A   Scattered Clouds
3:36 PM 90.7 °F 95.4 °F 69.1 °F 49% 29.98 in 10.0 mi WSW 8.1 mph - N/A   Clear
3:55 PM 90.1 °F 95.3 °F 70.0 °F 51% 29.98 in 10.0 mi SW 8.1 mph - N/A   Scattered Clouds
4:15 PM 90.9 °F 95.3 °F 68.5 °F 48% 29.96 in 10.0 mi SW 8.1 mph - N/A   Scattered Clouds
4:39 PM 90.7 °F 95.9 °F 69.6 °F 50% 29.96 in 10.0 mi SSW 10.4 mph - N/A   Clear
4:58 PM 90.9 °F 94.8 °F 68.4 °F 47% 29.95 in 10.0 mi SW 10.4 mph - N/A   Clear
5:16 PM 90.7 °F 95.9 °F 69.6 °F 50% 29.94 in 10.0 mi SSW 3.5 mph - N/A   Scattered Clouds
5:35 PM 91.0 °F 96.6 °F 70.0 °F 50% 29.94 in 10.0 mi SSW 4.6 mph - N/A   Scattered Clouds
5:55 PM 90.7 °F 95.9 °F 69.8 °F 50% 29.94 in 10.0 mi SSE 4.6 mph - N/A   Scattered Clouds
6:20 PM 91.4 °F 95.8 °F 68.7 °F 47% 29.92 in 10.0 mi SSW 6.9 mph - N/A   Scattered Clouds
6:38 PM 90.5 °F 94.2 °F 67.6 °F 47% 29.92 in 10.0 mi SSW 5.8 mph - N/A   Scattered Clouds
6:56 PM 90.3 °F 94.7 °F 68.7 °F 49% 29.92 in 10.0 mi South 3.5 mph - N/A   Clear
7:15 PM 88.9 °F 93.4 °F 69.4 °F 52% 29.92 in 10.0 mi South 5.8 mph - N/A   Clear
7:35 PM 88.0 °F 91.8 °F 68.4 °F 52% 29.91 in 10.0 mi South 4.6 mph - N/A   Clear
7:59 PM 86.2 °F 89.4 °F 68.0 °F 54% 29.91 in 10.0 mi South 3.5 mph - N/A   Clear
8:18 PM 84.2 °F 88.1 °F 69.3 °F 61% 29.91 in 10.0 mi South 4.6 mph - N/A   Clear
8:36 PM 84.2 °F 88.4 °F 70.0 °F 62% 29.91 in 10.0 mi South 3.5 mph - N/A   Clear
8:55 PM 83.3 °F 87.6 °F 70.5 °F 65% 29.92 in 10.0 mi SSW 3.5 mph - N/A   Clear
9:15 PM 82.8 °F 87.2 °F 70.7 °F 67% 29.93 in 10.0 mi SW 3.5 mph - N/A   Clear
9:39 PM 82.4 °F 86.7 °F 70.7 °F 68% 29.94 in 10.0 mi Calm Calm - N/A   Clear
9:57 PM 82.4 °F 86.7 °F 70.7 °F 68% 29.96 in 10.0 mi SW 5.8 mph - N/A   Mostly Cloudy
10:16 PM 82.0 °F 86.1 °F 70.7 °F 68% 29.96 in 10.0 mi SW 4.6 mph - N/A   Scattered Clouds
10:35 PM 81.9 °F 85.6 °F 70.0 °F 67% 29.97 in 10.0 mi WSW 5.8 mph - N/A   Clear
10:55 PM 82.4 °F 85.8 °F 69.3 °F 64% 29.97 in 10.0 mi WSW 4.6 mph - N/A   Mostly Cloudy
11:19 PM 82.4 °F 85.4 °F 68.2 °F 62% 29.99 in 10.0 mi NNW 11.5 mph - N/A   Mostly Cloudy
11:37 PM 79.7 °F - 67.1 °F 65% 29.99 in 10.0 mi NNW 6.9 mph - N/A   Scattered Clouds
11:55 PM 78.4 °F - 66.6 °F 67% 29.99 in 10.0 mi NNW 5.8 mph - N/A   Clear